Regional Weather Roundup
Issued by NWS

Home | Current Version | Previous Version | Graphics & Text | Print | Product List | Glossary On
Versions: 1 2 3 4 5 6 7 8 9 10 11 12 13 14 15 16 17 18 19 20 21 22 23 24 25 26 27 28 29 30 31 32 33 34 35 36 37 38 39 40 41 42 43 44 45 46 47 48 49 50
000
ASUS43 KTOP 190659
RWRKS

WEATHER ROUNDUP FOR KANSAS
NATIONAL WEATHER SERVICE GOODLAND KS
200 AM CDT SUN APR 19 2015

NOTE:  "FAIR" INDICATES FEW OR NO CLOUDS BELOW 12,000 FEET WITH NO
SIGNIFICANT WEATHER AND/OR OBSTRUCTIONS TO VISIBILITY.

KSZ001>006-013>018-027>032-041>047-190800-
NORTHWEST KANSAS

CITY           SKY/WX    TMP DP  RH WIND       PRES   REMARKS
GOODLAND       MOCLDY    47  45  93 N13       29.80R
HAYS           CLOUDY    52  43  71 E8        29.77F
HILL CITY      CLOUDY    51  47  86 NE6       29.79F
RUSSELL        CLOUDY    50  48  93 E3        29.75F
$$

KSZ061>065-074>080-084>089-190800-
SOUTHWEST KANSAS

CITY           SKY/WX    TMP DP  RH WIND       PRES   REMARKS
DODGE CITY     PTCLDY    48  39  71 SW3       29.79F
ELKHART          N/A    N/A N/A N/A MISG        N/A
GARDEN CITY    CLEAR     42  38  85 W9        29.79F
GREAT BEND     CLOUDY    50  45  81 CALM      29.77F
LIBERAL        PTCLDY    43  32  65 NW9       29.84R
$$

KSZ066>073-081>083-090>101-190800-
SOUTHEAST KANSAS

CITY           SKY/WX    TMP DP  RH WIND       PRES   REMARKS
CHANUTE        RAIN      54  53  97 W12G21    29.84R
COFFEYVILLE    LGT RAIN  55  53  93 N16       29.82F
HUTCHINSON     CLOUDY    55  50  83 SW10      29.76R
MEDICINE LODGE   N/A     53  51  93 SE3       29.76F
NEWTON         CLOUDY    52  48  87 E10       29.75F
PARSONS        LGT RAIN  55  54  96 NW16      29.83F
WICHITA INTL   CLOUDY    54  51  90 S8        29.74S
WICHITA JABRA  CLOUDY    53  53 100 SE5       29.74R
WINFIELD       CLOUDY    53  52  96 E9        29.76F
$$

KSZ007>012-019>026-033>040-048>060-102>105-190800-
NORTHEAST KANSAS

CITY           SKY/WX    TMP DP  RH WIND       PRES   REMARKS
CONCORDIA      CLOUDY    53  51  93 N5        29.75F
EMPORIA        RAIN      53  52  96 SW6       29.84R FOG
LAWRENCE       CLOUDY    56  52  86 NW7       29.79F
MANHATTAN      LGT RAIN  54  53  97 SW5       29.80R
OLATHE IND     CLOUDY    56  54  93 NW8       29.80S
OLATHE EXE     CLOUDY    60  58  92 W3        29.79F
SALINA         CLOUDY    55  50  83 SE12      29.74F
TOPEKA BILLARD CLOUDY    57  52  83 CALM      29.80F
TOPEKA FORBES  CLOUDY    57  52  83 N5        29.79F
$$



USA.gov is the U.S. government's official web portal to all federal, state and local government web resources and services.